Location: Arrien
(43.3167°N, 0.1500°W)
Time: 03:30:34
(UTC+00:00)

Gbstr 26 Del rocket - Pass Details

Date: 15 October 2021
Orbit: 492 x 1263 km, 51.8° (Epoch: 02 December)

Event Time Altitude Azimuth Distance (km) Brightness Sun altitude
Rises 19:37:01 0° 301° (WNW) 3,870 8.3 -26.1°
Reaches altitude 10° 19:39:36 10° 303° (WNW) 3,001 7.4 -26.5°
Maximum altitude 19:47:07 78° 30° (NNE) 1,253 4.4 -27.8°
Enters shadow 19:48:38 61° 98° (E) 1,383 4.4 -28.1°
